Time,TemperatureF,DewpointF,PressureIn,WindDirection,WindDirectionDegrees,WindSpeedMPH,WindSpeedGustMPH,Humidity,HourlyPrecipIn,Conditions,Clouds,dailyrainin,SolarRadiationWatts/m^2,SoftwareType,DateUTC
2013-08-09 00:22:00,70.0,43.0,29.96,WSW,246,10.0,19.0,37,0.00,,,0.00,0.000000,,2013-08-09 07:22:00,
2013-08-09 00:33:00,70.0,43.0,29.96,WSW,246,10.0,19.0,37,0.00,,,0.00,0.000000,,2013-08-09 07:33:00,
2013-08-09 00:43:00,70.0,43.0,29.96,WSW,246,10.0,19.0,37,0.00,,,0.00,0.000000,,2013-08-09 07:43:00,
2013-08-09 00:52:00,70.0,43.0,29.96,WSW,246,10.0,19.0,37,0.00,,,0.00,0.000000,,2013-08-09 07:52:00,
2013-08-09 01:43:00,66.0,40.0,29.96,SW,222,13.0,18.0,39,0.00,,,-99.99,0.000000,,2013-08-09 08:43:00,
2013-08-09 01:53:00,66.0,40.0,29.96,SW,222,13.0,18.0,39,0.00,,,-99.99,0.000000,,2013-08-09 08:53:00,
2013-08-09 02:22:00,66.0,43.0,29.95,SW,227,14.0,20.0,43,0.00,,,0.00,0.000000,,2013-08-09 09:22:00,
2013-08-09 02:32:00,66.0,43.0,29.95,SW,227,14.0,20.0,43,0.00,,,0.00,0.000000,,2013-08-09 09:32:00,
2013-08-09 02:43:00,66.0,43.0,29.95,SW,227,14.0,20.0,43,0.00,,,0.00,0.000000,,2013-08-09 09:43:00,
2013-08-09 02:52:00,66.0,43.0,29.95,SW,227,14.0,20.0,43,0.00,,,0.00,0.000000,,2013-08-09 09:52:00,
2013-08-09 03:22:00,65.0,45.0,29.95,SW,226,12.0,21.0,49,0.00,,,0.00,0.000000,,2013-08-09 10:22:00,
2013-08-09 03:32:00,65.0,45.0,29.95,SW,226,12.0,21.0,49,0.00,,,0.00,0.000000,,2013-08-09 10:32:00,
2013-08-09 03:43:00,65.0,45.0,29.95,SW,226,12.0,21.0,49,0.00,,,0.00,0.000000,,2013-08-09 10:43:00,
2013-08-09 03:53:00,65.0,45.0,29.95,SW,226,12.0,21.0,49,0.00,,,0.00,0.000000,,2013-08-09 10:53:00,
2013-08-09 04:42:00,64.0,47.0,29.94,SW,217,15.0,20.0,53,0.00,,,-99.99,0.000000,,2013-08-09 11:42:00,
2013-08-09 04:53:00,64.0,47.0,29.94,SW,217,15.0,20.0,53,0.00,,,-99.99,0.000000,,2013-08-09 11:53:00,
2013-08-09 05:43:00,62.0,45.0,29.93,SW,224,12.0,22.0,53,0.00,,,-99.99,0.000000,,2013-08-09 12:43:00,
2013-08-09 05:52:00,62.0,45.0,29.93,SW,224,12.0,22.0,53,0.00,,,-99.99,0.000000,,2013-08-09 12:52:00,
2013-08-09 06:23:00,63.0,45.0,29.94,WSW,242,7.0,21.0,52,0.00,,,0.00,0.000000,,2013-08-09 13:23:00,
2013-08-09 06:32:00,63.0,45.0,29.94,WSW,242,7.0,21.0,52,0.00,,,0.00,0.000000,,2013-08-09 13:32:00,
2013-08-09 06:43:00,63.0,45.0,29.94,WSW,242,7.0,21.0,52,0.00,,,0.00,0.000000,,2013-08-09 13:43:00,
2013-08-09 06:52:00,63.0,45.0,29.94,WSW,242,7.0,21.0,52,0.00,,,0.00,0.000000,,2013-08-09 13:52:00,
2013-08-09 07:43:00,64.0,43.0,29.95,WSW,237,10.0,16.0,47,0.00,,,0.00,27.000000,,2013-08-09 14:43:00,
2013-08-09 07:53:00,64.0,43.0,29.95,WSW,237,10.0,16.0,47,0.00,,,0.00,27.000000,,2013-08-09 14:53:00,
2013-08-09 08:44:00,71.0,43.0,29.96,SW,229,10.0,16.0,36,0.00,,,0.00,224.000000,,2013-08-09 15:44:00,
2013-08-09 08:53:00,71.0,43.0,29.96,SW,229,10.0,16.0,36,0.00,,,0.00,224.000000,,2013-08-09 15:53:00,
2013-08-09 09:43:00,77.0,41.0,29.97,SSW,207,11.0,17.0,28,0.00,,,0.00,466.000000,,2013-08-09 16:43:00,
2013-08-09 09:53:00,77.0,41.0,29.97,SSW,207,11.0,17.0,28,0.00,,,0.00,466.000000,,2013-08-09 16:53:00,
2013-08-09 11:32:00,84.0,30.0,29.97,SSW,205,12.0,24.0,14,0.00,,,0.00,878.000000,,2013-08-09 18:32:00,
2013-08-09 11:43:00,84.0,30.0,29.97,SSW,205,12.0,24.0,14,0.00,,,0.00,878.000000,,2013-08-09 18:43:00,
2013-08-09 11:52:00,84.0,30.0,29.97,SSW,205,12.0,24.0,14,0.00,,,0.00,878.000000,,2013-08-09 18:52:00,
2013-08-09 15:22:00,88.0,25.0,29.95,SW,220,16.0,28.0,10,0.00,,,0.00,1052.000000,,2013-08-09 22:22:00,
2013-08-09 15:32:00,88.0,25.0,29.95,SW,220,16.0,28.0,10,0.00,,,0.00,1052.000000,,2013-08-09 22:32:00,
2013-08-09 15:42:00,88.0,25.0,29.95,SW,220,16.0,28.0,10,0.00,,,0.00,1052.000000,,2013-08-09 22:42:00,
2013-08-09 15:52:00,88.0,25.0,29.95,SW,220,16.0,28.0,10,0.00,,,0.00,1052.000000,,2013-08-09 22:52:00,
2013-08-09 16:43:00,88.0,27.0,29.94,SSW,210,20.0,31.0,11,0.00,,,0.00,928.000000,,2013-08-09 23:43:00,
2013-08-09 16:52:00,88.0,27.0,29.94,SSW,210,20.0,31.0,11,0.00,,,0.00,928.000000,,2013-08-09 23:52:00,
2013-08-09 17:33:00,86.0,38.0,29.94,SW,218,22.0,30.0,18,0.00,,,0.00,741.000000,,2013-08-10 00:33:00,
2013-08-09 17:43:00,86.0,38.0,29.94,SW,218,22.0,30.0,18,0.00,,,0.00,741.000000,,2013-08-10 00:43:00,
2013-08-09 17:52:00,86.0,38.0,29.94,SW,218,22.0,30.0,18,0.00,,,0.00,741.000000,,2013-08-10 00:52:00,
2013-08-09 18:32:00,82.0,42.0,29.94,SSW,210,23.0,33.0,24,0.00,,,0.00,514.000000,,2013-08-10 01:32:00,
2013-08-09 18:52:00,82.0,42.0,29.94,SSW,210,23.0,33.0,24,0.00,,,0.00,514.000000,,2013-08-10 01:52:00,
2013-08-09 19:21:00,76.0,42.0,29.95,SW,222,21.0,34.0,30,0.00,,,0.00,255.000000,,2013-08-10 02:21:00,
2013-08-09 19:32:00,76.0,42.0,29.95,SW,222,21.0,34.0,30,0.00,,,0.00,255.000000,,2013-08-10 02:32:00,
2013-08-09 19:42:00,76.0,42.0,29.95,SW,222,21.0,34.0,30,0.00,,,0.00,255.000000,,2013-08-10 02:42:00,
2013-08-09 19:52:00,76.0,42.0,29.95,SW,222,21.0,34.0,30,0.00,,,0.00,255.000000,,2013-08-10 02:52:00,
2013-08-09 20:21:00,71.0,40.0,29.96,SW,229,17.0,31.0,32,0.00,,,0.00,46.000000,,2013-08-10 03:21:00,
2013-08-09 20:32:00,71.0,40.0,29.96,SW,229,17.0,31.0,32,0.00,,,0.00,46.000000,,2013-08-10 03:32:00,
2013-08-09 20:42:00,71.0,40.0,29.96,SW,229,17.0,31.0,32,0.00,,,0.00,46.000000,,2013-08-10 03:42:00,
2013-08-09 20:51:00,71.0,40.0,29.96,SW,229,17.0,31.0,32,0.00,,,0.00,46.000000,,2013-08-10 03:51:00,
2013-08-09 21:22:00,68.0,42.0,29.98,WSW,254,11.0,30.0,39,0.00,,,0.00,0.000000,,2013-08-10 04:22:00,
2013-08-09 21:32:00,68.0,42.0,29.98,WSW,254,11.0,30.0,39,0.00,,,0.00,0.000000,,2013-08-10 04:32:00,
2013-08-09 21:42:00,68.0,42.0,29.98,WSW,254,11.0,30.0,39,0.00,,,0.00,0.000000,,2013-08-10 04:42:00,
2013-08-09 21:53:00,68.0,42.0,29.98,WSW,254,11.0,30.0,39,0.00,,,0.00,0.000000,,2013-08-10 04:53:00,
2013-08-09 22:42:00,69.0,33.0,29.99,SW,220,15.0,26.0,26,0.00,,,0.00,0.000000,,2013-08-10 05:42:00,
2013-08-09 22:52:00,69.0,33.0,29.99,SW,220,15.0,26.0,26,0.00,,,0.00,0.000000,,2013-08-10 05:52:00,
2013-08-09 23:44:00,68.0,30.0,29.99,SW,228,15.0,22.0,24,0.00,,,0.00,0.000000,,2013-08-10 06:44:00,